Tracking 29892 objects as of 21-Nov-2024
HD Live streaming from Space Station
objects crossing your sky now

INTELSAT 2-F1

Track INTELSAT 2-F1 now!
INTELSAT 2-F1 is classified as:


NORAD ID: 2514
Int'l Code: 1966-096A
Perigee: 3,287.8 km
Apogee: 37,092.0 km
Inclination: 17.0 °
Period: 718.0 minutes
Semi major axis: 26560 km
RCS: 1.165 m2 (large)
Launch date: October 26, 1966
Source: International Telecommunications Satellite Organization (ITSO)
Launch site: AIR FORCE EASTERN TEST RANGE (AFETR)
Your satellite tracking list
Your tracking list is empty




NASA's NSSDC Master Catalog

Two Line Element Set (TLE):
1 02514U 66096A   24322.81086215  .00000150  00000-0  00000-0 0  9999
2 02514  16.9615 164.5021 6363522 340.3726   3.4776  2.00557641 83258
Source of the keplerian elements: AFSPC